Location: Newark
(59.4564°N, 26.6917°E)
Time: 15:26:01
(UTC+00:00)

SR - Pass Details

Date: 26 November 2019
Orbit: 573 x 882 km, 66.7° (Epoch: 07 December)

Event Time Altitude Azimuth Distance (km) Brightness Sun altitude
Rises 14:52:51 0° 272° (W) 3,383 ? -9.8°
Reaches altitude 10° 14:55:23 10° 279° (W) 2,483 ? -10.1°
Maximum altitude 15:00:55 43° 351° (N) 1,209 ? -10.7°
Enters shadow 15:05:42 14° 59° (ENE) 2,246 ? -11.3°
Drops below altitude 10° 15:06:36 10° 62° (ENE) 2,552 - -11.4°
Sets 15:09:15 0° 69° (ENE) 3,486 - -11.7°
